Regional Weather Roundup
Issued by NWS

Home | Current Version | Previous Version | Graphics & Text | Print | Product List | Glossary On
Versions: 1 2 3 4 5 6 7 8 9 10 11 12 13 14 15 16 17 18 19 20 21 22 23 24 25 26 27 28 29 30 31 32 33 34 35 36 37 38 39 40 41 42 43 44 45 46 47 48 49 50
000
ASUS43 KMPX 242201
RWRMN
WEATHER ROUNDUP FOR MINNESOTA
NATIONAL WEATHER SERVICE TWIN CITIES/CHANHASSEN MN
500 PM CDT SUN MAY 24 2015


NOTE: "FAIR" INDICATES FEW OR NO CLOUDS BELOW 12,000 FEET WITH NO
SIGNIFICANT WEATHER AND/OR OBSTRUCTIONS TO VISIBILITY. N/A MEANS
CURRENT SKY AND/OR WEATHER CONDITIONS ARE NOT AVAILABLE.

MNZ060>063-068>070-242300-
   Twin Cities Metro

CITY           SKY/WX    TMP DP  RH WIND       PRES   REMARKS
TWIN CITIES    LGT RAIN  60  58  92 E10       29.91F FOG
ST PAUL        LGT RAIN  60  58  92 E6        29.92F FOG
CRYSTAL        LGT RAIN  61  58  90 E7        29.91F FOG
BLAINE         LGT RAIN  63  61  94 E8        29.93S
LAKEVILLE      DRIZZLE   57  57 100 E10       29.90F
EDEN PRAIRIE   LGT RAIN  60  58  92 E12       29.89F FOG
SOUTH ST PAUL  LGT RAIN  60  58  92 E7        29.91F
LAKE ELMO      LGT RAIN  59  59 100 E7        29.93F
$$
MNZ001>005-007-008-013>017-022>024-027-028-242300-
   Northwest Minnesota

CITY           SKY/WX    TMP DP  RH WIND       PRES   REMARKS
BEMIDJI        CLOUDY    68  47  46 E6        29.97F
HALLOCK        CLOUDY    77  39  25 SE6       29.93F
ROSEAU         CLOUDY    79  43  27 E8        29.94F
WARROAD        CLOUDY    73  50  43 NE6       29.95F
THIEF RVR FALL CLOUDY    73  45  35 E5        29.95F
CROOKSTON      CLOUDY    75  48  38 E7        29.93F
FOSSTON        CLOUDY    72  48  43 E6        29.96F
DETROIT LAKES  CLOUDY    68  52  56 SE12      29.95F
MOORHEAD       CLOUDY    70  52  52 E9        29.92F
PARK RAPIDS    CLOUDY    71  48  43 E15       29.94F
MAHNOMEN       CLOUDY    70  48  45 E9        29.94F
$$
MNZ006-009>011-018-025>026-242300-
   North Central Minnesota

CITY           SKY/WX    TMP DP  RH WIND       PRES   REMARKS
BAUDETTE       CLOUDY    76  44  32 N5        29.94F
FLAG ISLAND    CLOUDY    64  54  68 S7        29.94F
INTL FALLS     CLOUDY    76  41  28 NE6       29.94F
WASKISH        CLOUDY    70  54  56 CALM      29.96S
BIG FORK       CLOUDY    73  46  38 S3        29.97F
LONGVILLE      CLOUDY    72  48  43 SE8       29.96F
GRAND RAPIDS   CLOUDY    66  46  48 SE6       29.99S
CRANE LAKE     PTSUNNY   75  36  23 NW5       29.96F
ORR            PTSUNNY   77  37  24 CALM      29.93F
COOK           PTSUNNY   75  45  33 S5        29.95F
WALKER         CLOUDY    69  50  50 E7        29.96F
$$
MNZ012-019>021-037-242300-
   Northeast Minnesota

CITY           SKY/WX    TMP DP  RH WIND       PRES   REMARKS
DULUTH         CLOUDY    70  46  42 NE7       29.97F
ELY            CLOUDY    75  37  25 SE3       29.95F
HIBBING        CLOUDY    70  48  45 S6        29.97F
EVELETH        CLOUDY    68  46  45 S6        29.99F
DULUTH HARBOR  CLOUDY    64  48  55 S8        29.97S
TWO HARBORS    CLOUDY    73  52  46 E3        29.95F
GRAND MARAIS     N/A     55  42  61 SW6       29.97F
G MARAIS ARPRT CLOUDY    68  37  32 S6        30.01F
$$
MNZ029>031-032-039>041-046>048-054>057-064-242300-
   West Central Minnesota

CITY           SKY/WX    TMP DP  RH WIND       PRES   REMARKS
FERGUS FALLS   CLOUDY    64  54  68 E10       29.93F
WHEATON        CLOUDY    61  55  82 E15       29.93S
MORRIS         RAIN      61  59  94 E8        29.90F
ALEXANDRIA     LGT RAIN  60  57  89 E9        29.94F
ELBOW LAKE     CLOUDY    61  56  82 E12G18    29.92F
WADENA         CLOUDY    66  54  63 SE10      29.94F
APPLETON       DRIZZLE   61  57  88 E13G18    29.88F
BENSON         DRIZZLE   61  57  88 E9        29.89F
ORTONVILLE     LGT RAIN  59  55  88 E13       29.89F
MADISON        CLOUDY    61  57  88 NE12      29.88F
WILLMAR        LGT RAIN  61  59  94 E13       29.90F
$$
MNZ033>034-036-042>043-049>051-058-059-242300-
   Central Minnesota

CITY           SKY/WX    TMP DP  RH WIND       PRES   REMARKS
ST CLOUD       LGT RAIN  59  58  96 NE7       29.93F FOG
SAUK CENTRE    LGT RAIN  59  57  91 NE10      29.93F
PAYNESVILLE    LGT RAIN  57  56  97 N12G17    29.92F
AITKIN         CLOUDY    70  52  52 SE8       29.95F
PINE RIVER     CLOUDY    66  52  59 E6        29.99F
BRAINERD       CLOUDY    64  51  62 SE6       29.97F
STAPLES        CLOUDY    64  50  59 SE6       29.95F
LONG PRAIRIE   DRIZZLE   59  55  88 NE6       29.95F
LITTLE FALLS   LGT RAIN  59  55  88 E6        29.95F
LITCHFIELD     DRIZZLE   61  59  94 E12G17    29.91F
BUFFALO        DRIZZLE   59  56  90 NE9       29.93F
MAPLE LAKE     DRIZZLE   60  59  94 E9        29.93F
$$
MNZ037-044-045-052-053-242300-
   East Central Minnesota

CITY           SKY/WX    TMP DP  RH WIND       PRES   REMARKS
PRINCETON      RAIN      61  59  94 NE6       29.94F
MORA           RAIN      59  54  82 CALM      29.98F
CAMBRIDGE      LGT RAIN  63  54  72 E6        29.94F
RUSH CITY      LGT RAIN  60  57  90 NE3       29.96F
MOOSE LAKE     DRIZZLE   64  52  63 SE3       29.96F
HINCKLEY       DRIZZLE   63  59  88 CALM      29.97F
CLOQUET        CLOUDY    68  46  45 S3        29.98S
MCGREGOR       CLOUDY    68  52  56 E6        29.98S
$$
MNZ071>073-080-081-089-090-097-098-242300-
   Southwest Minnesota

CITY           SKY/WX    TMP DP  RH WIND       PRES   REMARKS
MONTEVIDEO     DRIZZLE   61  61 100 SE14      29.88F
GRANITE FALLS  DRIZZLE   60  58  95 E12       29.88F
CANBY          LGT RAIN  59  58  95 E12       29.88F
MARSHALL       CLOUDY    59  54  82 E12       29.85F
REDWOOD FALLS  LGT RAIN  60  59  96 E10       29.86F FOG
OLIVIA         RAIN      57  54  88 E7G16     29.87F
WINDOM         DRIZZLE   61  57  88 E12       29.83F
WORTHINGTON    CLOUDY    61  55  82 E13       29.82F
JACKSON        FOG       59  59 100 E9        29.83S VSB 1
TRACY          DRIZZLE   60  59  96 E12       29.85F
SLAYTON        RAIN      59  59 100 CALM      29.84F
$$
MNZ065>067-074>077-082>085-091>093-242300-
   South Central Minnesota

CITY           SKY/WX    TMP DP  RH WIND       PRES   REMARKS
MANKATO        CLOUDY    61  57  88 E13       29.86F
NEW ULM        LGT RAIN  59  59 100 E13       29.85F
ST JAMES       LGT RAIN  61  61 100 E12       29.85F
FAIRMONT       CLOUDY    61  55  82 E12       29.82F
GLENCOE        LGT RAIN  60  60  98 E9        29.88F
FARIBAULT      RAIN      61  57  88 E6        29.88F
OWATONNA       HVY RAIN  61  57  88 E13       29.87F
WASECA         HVY RAIN  59  57  94 E14       29.87F
ALBERT LEA     DRIZZLE   61  59  94 SE8       29.85F
$$
MNZ078>079-086>088-094>096-242300-
   Southeast Minnesota

CITY           SKY/WX    TMP DP  RH WIND       PRES   REMARKS
ROCHESTER      LGT RAIN  58  57  97 SE13      29.90F FOG
RED WING       RAIN      61  57  88 E8        29.90F
STANTON        DRIZZLE   60  57  89 E12       29.88F
DODGE CENTER   RAIN      59  57  94 E12       29.88F
WINONA         RAIN      59  57  94 SE10      29.91F
AUSTIN         LGT RAIN  57  57 100 SE13      29.86F
PRESTON        LGT RAIN  57  56  94 SE10      29.90F
$$
ABBREVIATIONS USED IN REMARKS
   TC - TEMPERATURES IN CELSIUS
  WCI - WIND CHILL INDEX
   HX - HEAT INDEX
  VSB - VISIBILITY
$$



USA.gov is the U.S. government's official web portal to all federal, state and local government web resources and services.